Location: Unspecified
(0.0000°N, 0.0000°E)
Time: 06:00:03

Vanguard 2 Rocket - Pass Details

Date: 16 December 2017
Orbit: 554 x 3327 km, 32.9° (Epoch: 19 March)

Event Time Altitude Azimuth Distance (km) Brightness Sun altitude
Rises 01:22:58 0° 312° (NW) 7,200 - -58.5°
Reaches altitude 10° 01:27:54 10° 316° (NW) 6,265 - -57.6°
Maximum altitude 01:47:57 61° 33° (NNE) 3,240 - -54.1°
Exits shadow 01:51:44 53° 73° (ENE) 3,232 9.5 -53.4°
Drops below altitude 10° 02:02:18 10° 110° (ESE) 4,701 10.9 -51.4°
Sets 02:05:22 0° 113° (ESE) 5,390 11.4 -50.8°
